Location: Schommer Observatory
(40.5200°N, 74.4500°W)
Time: 06:30:33
(UTC-05:00)

N. Korean satellite - Pass Details

Date: 15 November 2017
Orbit: 460 x 514 km, 97.2° (Epoch: 25 November)

Event Time Altitude Azimuth Distance (km) Brightness Sun altitude
Rises 06:13:01 0° 22° (NNE) 2,599 10.3 -6.4°
Reaches altitude 10° 06:15:15 10° 32° (NNE) 1,718 9.5 -6.0°
Maximum altitude 06:18:36 32° 97° (E) 895 8.9 -5.4°
Drops below altitude 10° 06:21:58 10° 162° (SSE) 1,725 10.0 -4.8°
Sets 06:24:12 0° 172° (S) 2,610 10.7 -4.4°
